Richlands, VA

10:48 AM EDT on March 23, 2017 (GMT -0400)
Tazewell County

Weather History for KJFZ - October, 2012

Change the Weather History Date:

Monday, October 29, 2012

  Actual Average (KBLF) Record (KBLF)
Temperature  
Mean Temperature 31 °F -  
Max Temperature 32 °F 59 °F 74 °F (1961)
Min Temperature 28 °F 40 °F 25 °F (1965)
Degree Days  
Heating Degree Days 34    
Moisture  
Dew Point 30 °F    
Average Humidity 100    
Maximum Humidity 100    
Minimum Humidity 93    
Precipitation  
Precipitation 0.00 in - - ()
Sea Level Pressure  
Sea Level Pressure 29.72 in    
Wind  
Wind Speed 5 mph (WNW)    
Max Wind Speed 13 mph    
Max Gust Speed -    
Visibility 1 miles    
Events      
Averages and records for this station are not official NWS values.
T = Trace of Precipitation, MM = Missing Value Source: NWS Daily Summary

Daily Weather History Graph

Daily Weather History Graph

Search for Another Location

Airport or City:

Trip Planner

Search our weather history database for the weather conditions in past years. The results will help you decide how hot, cold, wet, or windy it might be!

Date:

Astronomy

Oct. 29, 2012 Rise Set
Actual Time 7:48 AM EDT 6:32 PM EDT
Civil Twilight 7:22 AM EDT 6:59 PM EDT
Nautical Twilight 6:51 AM EDT 7:29 PM EDT
Astronomical Twilight 6:21 AM EDT 7:59 PM EDT
Moon 6:24 PM EDT (10/29) 7:37 AM EDT (10/29)
Length of Visible Light 11h 37m
Length of Day
10h 43m
Full, 100% of the Moon is Illuminated
Oct 29
Full
Oct 29
Full
Nov 6
Last Quarter
Nov 13
New
Nov 20
First Quarter

Hourly Weather History & Observations

Time (EDT) Temp. Windchill Dew Point Humidity Pressure Visibility Wind Dir Wind Speed Gust Speed Precip Events Conditions
12:55 AM 30.2 °F 25.4 °F 30.2 °F 100% 29.83 in 1.2 mi WNW 4.6 mph - N/A   Unknown
1:15 AM 30.2 °F 25.4 °F 30.2 °F 100% 29.83 in 1.8 mi WNW 4.6 mph - N/A   Unknown
1:35 AM 30.2 °F 26.7 °F 30.2 °F 100% 29.83 in 2.0 mi WNW 3.5 mph - N/A   Unknown
1:55 AM 30.2 °F 25.4 °F 30.2 °F 100% 29.82 in 1.2 mi WNW 4.6 mph - N/A   Unknown
2:15 AM 30.2 °F 26.7 °F 30.2 °F 100% 29.82 in 1.2 mi WNW 3.5 mph - N/A   Unknown
2:35 AM 30.2 °F 25.4 °F 30.2 °F 100% 29.81 in 1.2 mi WNW 4.6 mph - N/A   Unknown
2:55 AM 30.2 °F 24.3 °F 30.2 °F 100% 29.81 in 1.2 mi WNW 5.8 mph - N/A   Unknown
3:35 AM 30.2 °F 25.4 °F 30.2 °F 100% 29.80 in 0.8 mi WNW 4.6 mph - N/A   Mostly Cloudy
3:55 AM 30.2 °F 26.7 °F 30.2 °F 100% 29.80 in 0.8 mi WNW 3.5 mph - N/A   Mostly Cloudy
4:15 AM 30.2 °F 25.4 °F 30.2 °F 100% 29.79 in 0.8 mi Variable 4.6 mph - N/A   Mostly Cloudy
4:35 AM 30.2 °F 26.7 °F 30.2 °F 100% 29.78 in 0.8 mi WNW 3.5 mph - N/A   Mostly Cloudy
4:55 AM 30.2 °F 25.4 °F 30.2 °F 100% 29.78 in 0.8 mi WNW 4.6 mph - N/A   Mostly Cloudy
5:35 AM 30.2 °F 26.7 °F 30.2 °F 100% 29.79 in 0.5 mi WNW 3.5 mph - N/A   Mostly Cloudy
5:55 AM 30.2 °F 26.7 °F 30.2 °F 100% 29.78 in 0.5 mi WNW 3.5 mph - N/A   Mostly Cloudy
6:15 AM 30.2 °F - 30.2 °F 100% 29.78 in 0.5 mi Calm Calm - N/A   Mostly Cloudy
6:35 AM 30.2 °F 26.7 °F 30.2 °F 100% 29.78 in 1.0 mi Variable 3.5 mph - N/A   Mostly Cloudy
6:55 AM 30.2 °F 26.7 °F 30.2 °F 100% 29.77 in 0.5 mi WNW 3.5 mph - N/A   Mostly Cloudy
7:15 AM 30.2 °F 25.4 °F 30.2 °F 100% 29.77 in 1.2 mi WNW 4.6 mph - N/A   Unknown
7:35 AM 30.2 °F 26.7 °F 30.2 °F 100% 29.78 in 0.5 mi NW 3.5 mph - N/A   Mostly Cloudy
7:55 AM 30.2 °F 26.7 °F 30.2 °F 100% 29.78 in 0.8 mi NW 3.5 mph - N/A   Mostly Cloudy
8:15 AM 30.2 °F 26.7 °F 30.2 °F 100% 29.77 in 0.5 mi NW 3.5 mph - N/A   Mostly Cloudy
8:35 AM 30.2 °F 25.4 °F 30.2 °F 100% 29.77 in 1.2 mi WNW 4.6 mph - N/A   Mostly Cloudy
8:55 AM 30.2 °F 25.4 °F 30.2 °F 100% 29.77 in 0.8 mi WNW 4.6 mph - N/A   Mostly Cloudy
9:15 AM 30.2 °F 25.4 °F 30.2 °F 100% 29.77 in 0.5 mi WNW 4.6 mph - N/A   Mostly Cloudy
9:35 AM 30.2 °F 25.4 °F 30.2 °F 100% 29.76 in 1.2 mi Variable 4.6 mph - N/A   Unknown
9:55 AM 30.2 °F 24.3 °F 30.2 °F 100% 29.76 in 1.2 mi WNW 5.8 mph - N/A   Unknown
10:15 AM 32.0 °F 27.5 °F 30.2 °F 93% 29.75 in 1.8 mi WNW 4.6 mph - N/A   Unknown
10:35 AM 32.0 °F 27.5 °F 30.2 °F 93% 29.75 in 1.5 mi WNW 4.6 mph - N/A   Unknown
10:55 AM 32.0 °F 27.5 °F 32.0 °F 100% 29.74 in 1.2 mi WNW 4.6 mph - N/A   Unknown
11:15 AM 32.0 °F 26.4 °F 32.0 °F 100% 29.74 in 1.0 mi WNW 5.8 mph - N/A   Unknown
11:35 AM 32.0 °F 27.5 °F 30.2 °F 93% 29.74 in 1.0 mi WNW 4.6 mph - N/A   Unknown
11:55 AM 32.0 °F 26.4 °F 32.0 °F 100% 29.74 in 0.8 mi WNW 5.8 mph - N/A   Unknown
12:15 PM 32.0 °F 26.4 °F 32.0 °F 100% 29.73 in 1.0 mi WNW 5.8 mph - N/A   Unknown
12:35 PM 32.0 °F 26.4 °F 32.0 °F 100% 29.73 in 1.0 mi Variable 5.8 mph - N/A   Unknown
12:55 PM 32.0 °F 27.5 °F 32.0 °F 100% 29.72 in 1.0 mi WNW 4.6 mph - N/A   Unknown
1:15 PM 32.0 °F 26.4 °F 32.0 °F 100% 29.71 in 1.2 mi WNW 5.8 mph - N/A   Unknown
1:35 PM 32.0 °F 25.6 °F 32.0 °F 100% 29.70 in 1.2 mi WNW 6.9 mph - N/A   Unknown
1:55 PM 32.0 °F 26.4 °F 32.0 °F 100% 29.70 in 0.8 mi WNW 5.8 mph - N/A   Unknown
2:15 PM 32.0 °F 26.4 °F 32.0 °F 100% 29.69 in 0.5 mi WNW 5.8 mph - N/A   Unknown
2:55 PM 32.0 °F 26.4 °F 30.2 °F 93% 29.67 in 0.8 mi WNW 5.8 mph - N/A   Unknown
3:15 PM 30.2 °F 24.3 °F 30.2 °F 100% 29.66 in 0.8 mi WNW 5.8 mph - N/A   Unknown
3:35 PM 30.2 °F 24.3 °F 30.2 °F 100% 29.66 in 0.8 mi WNW 5.8 mph - N/A   Unknown
3:55 PM 30.2 °F 23.4 °F 30.2 °F 100% 29.65 in 0.5 mi WNW 6.9 mph - N/A   Unknown
4:15 PM 30.2 °F 25.4 °F 30.2 °F 100% 29.64 in 0.5 mi WNW 4.6 mph - N/A   Unknown
4:35 PM 30.2 °F 23.4 °F 30.2 °F 100% 29.64 in 0.5 mi WNW 6.9 mph - N/A   Unknown
4:55 PM 30.2 °F 22.6 °F 30.2 °F 100% 29.63 in 0.5 mi WNW 8.1 mph - N/A   Unknown
5:15 PM 30.2 °F 23.4 °F 30.2 °F 100% 29.62 in 0.5 mi WNW 6.9 mph - N/A   Unknown
5:35 PM 30.2 °F 24.3 °F 30.2 °F 100% 29.62 in - WNW 5.8 mph - N/A   Unknown
6:15 PM 30.2 °F 23.4 °F 30.2 °F 100% 29.61 in 0.8 mi WNW 6.9 mph - N/A   Unknown
6:35 PM 30.2 °F 22.6 °F 30.2 °F 100% 29.60 in - WNW 8.1 mph - N/A   Unknown
6:55 PM 30.2 °F 21.9 °F 30.2 °F 100% 29.60 in 1.2 mi WNW 9.2 mph - N/A   Clear
7:15 PM 30.2 °F 21.9 °F 30.2 °F 100% 29.58 in 1.0 mi WNW 9.2 mph - N/A   Unknown
7:35 PM 30.2 °F 22.6 °F 30.2 °F 100% 29.58 in 1.0 mi WNW 8.1 mph - N/A   Unknown
7:55 PM 30.2 °F 20.8 °F 30.2 °F 100% 29.58 in 1.2 mi WNW 11.5 mph - N/A   Unknown
8:15 PM 30.2 °F 20.8 °F 30.2 °F 100% 29.57 in - WNW 11.5 mph - N/A   Unknown
8:35 PM 30.2 °F 20.2 °F 30.2 °F 100% 29.56 in - WNW 12.7 mph - N/A   Unknown
8:55 PM 30.2 °F 21.3 °F 30.2 °F 100% 29.55 in - WNW 10.4 mph - N/A   Unknown
11:55 PM 28.4 °F 18.0 °F 28.4 °F 100% 29.51 in - WNW 12.7 mph - N/A   Unknown